Regional Weather Roundup
Issued by NWS Memphis, TN

Home | Current Version | Previous Version | Text Only | Print | Product List | Glossary On
Versions: 1 2 3 4 5 6 7 8 9 10 11 12 13 14 15 16 17 18 19 20 21 22 23 24 25 26 27 28 29 30 31 32 33 34 35 36 37 38 39 40 41 42 43 44 45 46 47 48 49 50
000
ASUS44 KMEG 230910
RWRMEG
MEMPHIS CWA HOURLY WEATHER ROUNDUP
NATIONAL WEATHER SERVICE MEMPHIS TN
400 AM CDT FRI JUN 23 2017

...WEST TENNESSEE...

CITY           SKY/WX    TMP DP  RH WIND       PRES   REMARKS
MEMPHIS INTL   CLOUDY    79  73  82 S16G24    29.69F
NWS MEMPHIS      N/A     77 N/A N/A MISG        N/A
JACKSON        PTCLDY    77  74  90 S7        29.76F
COVINGTON      MOCLDY    77  73  88 S8G15     29.72F
SOMERVILLE     CLOUDY    77  73  88 S10G20    29.73F
BOLIVAR        CLOUDY    77  73  88 SE12      29.76F
LEXINGTON      MOCLDY    77  72  83 S9G16     29.80R
SELMER         MOCLDY    75  73  94 S10G16    29.80S
SAVANNAH       CLOUDY    79  72  78 S13G20    29.81S
UNION CITY     MOCLDY    77  73  88 S12       29.73F
PARIS          CLOUDY    77  73  88 S12G18    29.76F
HUNTINGDON     CLOUDY    77  73  88 S14G20    29.77S


...EASTERN ARKANSAS...

CITY           SKY/WX    TMP DP  RH WIND       PRES   REMARKS
JONESBORO      LGT RAIN  77  73  87 SE8       29.67F
WEST MEMPHIS   HVY RAIN  76  74  93 S23G31    29.66F FOG
BATESVILLE     CLOUDY    75  73  94 E6        29.64F
WALNUT RIDGE   CLOUDY    75  72  88 SE12      29.66F
BLYTHEVILLE    CLOUDY    78  75  90 S10       29.71F
SEARCY         CLOUDY    75  75 100 N7        29.63S
STUTTGART      CLOUDY   N/A N/A N/A S18       29.59F
PINE BLUFF     LGT RAIN  76  74  93 SW15G24   29.61R
MONTICELLO     TSTM      76  74  93 SW13G22   29.68R VSB 3/4


...NORTH MISSISSIPPI...

CITY           SKY/WX    TMP DP  RH WIND       PRES   REMARKS
TUPELO         CLOUDY    77  71  82 SE16      29.81S
OXFORD         MOCLDY    75  72  88 S15G25    29.78S
BATESVILLE     CLOUDY    78  71  79 S16G22    29.73F
TUNICA         RAIN      75  72  88 S24G33    29.67F
CLARKSDALE       N/A     77  77 100 S22G30    29.68S FOG
CORINTH        CLOUDY    77  72  83 S12G17    29.80S
GREENWOOD      MOCLDY    79  73  82 S18       29.76S
COLUMBUS       PTCLDY    76  76 100 S10       29.83F
STARKVILLE     MOCLDY    73  72  94 S10       29.84F
GOLDEN TRIANGL CLOUDY    75  70  83 S12       29.80F


...SOUTHEAST MISSOURI...

CITY           SKY/WX    TMP DP  RH WIND       PRES   REMARKS
KENNETT        CLOUDY    79  75  89 S10       29.69F
MALDEN         CLOUDY    79  73  83 S9        29.71F
WEST PLAINS    CLOUDY    74  73  97 NE5       29.72F
POPLAR BLUFF   TSTM      76  76 100 S8        29.69F
CAPE GIRARDEAU RAIN      76  73  91 S9        29.71F FOG


...NORTHWEST ALABAMA...

CITY           SKY/WX    TMP DP  RH WIND       PRES   REMARKS
MUSCLE SHOALS  MOCLDY    78  71  79 S12       29.86F


...MIDDLE TENNESSEE...

CITY           SKY/WX    TMP DP  RH WIND       PRES   REMARKS
NASHVILLE      MOCLDY    77  72  84 S8        29.85S
CLARKSVILLE    PTCLDY    76  71  85 S10       29.80F
COLUMBIA       MOCLDY    77  73  88 S7G15     29.82F


...WESTERN KENTUCKY...

CITY           SKY/WX    TMP DP  RH WIND       PRES   REMARKS
PADUCAH        CLOUDY    78  72  81 S8G17     29.73S
FORT CAMPBELL  CLOUDY    76  72  87 S9        29.79F


...CENTRAL ARKANSAS...

CITY           SKY/WX    TMP DP  RH WIND       PRES   REMARKS
LITTLE ROCK    LGT RAIN  75  75 100 NW7       29.60S FOG


SKY/WX REPORTED AS FAIR MEANS FEW OR NO CLOUDS BELOW
12 THOUSAND FEET.





USA.gov is the U.S. government's official web portal to all federal, state and local government web resources and services.